,,,PA_Meas_PMT16A,,PR_Meas_QMR101_102,,RH_Meas_QMH101,,SR_Meas_QMS101,,TA_Meas_QMH101,,GenWind,,GenWind,
date,time,status,PA,status,PR,status,RH,status,SR,status,TA,status,DirAvg,status,SpdAvg,
2010-04-06, 00:00:04,VALID,1005.08,VALID,0,VALID,95.773,VALID,0.100563,VALID,24.3265,VALID,65,VALID,0.403125,
2010-04-06, 00:01:04,VALID,1005.07,VALID,0,VALID,95.7806,VALID,0,VALID,24.3265,VALID,65,VALID,0.310937,
2010-04-06, 00:02:04,VALID,1005.09,VALID,0,VALID,95.7806,VALID,0,VALID,24.3459,VALID,65,VALID,0.196094,
2010-04-06, 00:03:04,VALID,1005.06,VALID,0,VALID,95.7653,VALID,0,VALID,24.3849,VALID,65,VALID,0.144922,
2010-04-06, 00:04:04,VALID,1005.08,VALID,0,VALID,95.773,VALID,0,VALID,24.4043,VALID,65,VALID,0,
2010-04-06, 00:05:04,VALID,1005.05,VALID,0,VALID,95.7959,VALID,0,VALID,24.422,VALID,65,VALID,0,
2010-04-06, 00:06:04,VALID,1005.05,VALID,0,VALID,95.773,VALID,0,VALID,24.4414,VALID,65,VALID,0,
2010-04-06, 00:07:04,VALID,1004.99,VALID,0,VALID,95.7882,VALID,0,VALID,24.4609,VALID,65,VALID,0,
2010-04-06, 00:08:04,VALID,1004.97,VALID,0,VALID,95.7959,VALID,0,VALID,24.4822,VALID,65,VALID,0,
2010-04-06, 00:09:04,VALID,1004.99,VALID,0,VALID,95.7806,VALID,0,VALID,24.5017,VALID,65,VALID,0,
2010-04-06, 00:10:04,VALID,1004.94,VALID,0,VALID,95.7806,VALID,0,VALID,24.4804,VALID,65,VALID,0,
2010-04-06, 00:11:04,VALID,1004.93,VALID,0,VALID,95.7577,VALID,0,VALID,24.4822,VALID,65,VALID,0,
2010-04-06, 00:12:04,VALID,1004.87,VALID,0,VALID,95.7501,VALID,0,VALID,24.4414,VALID,65,VALID,0,
2010-04-06, 00:13:04,VALID,1004.87,VALID,0,VALID,95.7272,VALID,0,VALID,24.4433,VALID,65,VALID,0,
2010-04-06, 00:14:04,VALID,1004.89,VALID,0,VALID,95.7043,VALID,0,VALID,24.422,VALID,65,VALID,0,
2010-04-06, 00:15:04,VALID,1004.87,VALID,0,VALID,95.6967,VALID,0,VALID,24.4238,VALID,65,VALID,0,
2010-04-06, 00:16:04,VALID,1004.89,VALID,0,VALID,95.6738,VALID,0,VALID,24.4238,VALID,65,VALID,0,
2010-04-06, 00:17:04,VALID,1004.92,VALID,0,VALID,95.6433,VALID,0,VALID,24.4433,VALID,65,VALID,0,
2010-04-06, 00:18:04,VALID,1004.92,VALID,0,VALID,95.6433,VALID,0,VALID,24.4238,VALID,65,VALID,0,
2010-04-06, 00:19:04,VALID,1004.94,VALID,0,VALID,95.6204,VALID,0,VALID,24.4025,VALID,65,VALID,0,
2010-04-06, 00:20:04,VALID,1004.98,VALID,0,VALID,95.6128,VALID,0,VALID,24.4025,VALID,65,VALID,0,
2010-04-06, 00:21:04,VALID,1004.97,VALID,0,VALID,95.5975,VALID,0,VALID,24.422,VALID,65,VALID,0,
2010-04-06, 00:22:04,VALID,1004.99,VALID,0,VALID,95.6204,VALID,0,VALID,24.4414,VALID,65,VALID,0,
2010-04-06, 00:23:04,VALID,1004.97,VALID,0,VALID,95.6356,VALID,0,VALID,24.4822,VALID,65,VALID,0,
2010-04-06, 00:24:04,VALID,1004.99,VALID,0,VALID,95.6204,VALID,0,VALID,24.4609,VALID,65,VALID,0.121094,
2010-04-06, 00:25:04,VALID,1004.99,VALID,0,VALID,95.6128,VALID,0,VALID,24.4628,VALID,65,VALID,0.409766,
2010-04-06, 00:26:04,VALID,1004.94,VALID,0,VALID,95.6204,VALID,0,VALID,24.4433,VALID,65,VALID,0.342578,
2010-04-06, 00:27:04,VALID,1004.95,VALID,0,VALID,95.5975,VALID,0,VALID,24.4433,VALID,65,VALID,0.325,
2010-04-06, 00:28:04,VALID,1004.93,VALID,0,VALID,95.5975,VALID,0,VALID,24.4025,VALID,64,VALID,0.459766,
2010-04-06, 00:29:04,VALID,1004.9,VALID,0,VALID,95.5822,VALID,0,VALID,24.4025,VALID,26,VALID,0.278906,
2010-04-06, 00:30:04,VALID,1004.92,VALID,0,VALID,95.5746,VALID,0,VALID,24.4025,VALID,26,VALID,0.142188,
2010-04-06, 00:31:04,VALID,1004.92,VALID,0,VALID,95.567,VALID,0,VALID,24.3849,VALID,26,VALID,0.126563,
2010-04-06, 00:32:04,VALID,1004.91,VALID,0,VALID,95.5441,VALID,0,VALID,24.3849,VALID,26,VALID,0.0425781,
2010-04-06, 00:33:04,VALID,1004.94,VALID,0,VALID,95.5365,VALID,0,VALID,24.3849,VALID,26,VALID,0,
2010-04-06, 00:34:04,VALID,1004.95,VALID,0,VALID,95.5365,VALID,0,VALID,24.3441,VALID,26,VALID,0,
2010-04-06, 00:35:04,VALID,1004.94,VALID,0,VALID,95.5288,VALID,0,VALID,24.3654,VALID,26,VALID,0,
2010-04-06, 00:36:04,VALID,1004.93,VALID,0,VALID,95.5365,VALID,0,VALID,24.3654,VALID,26,VALID,0,
2010-04-06, 00:37:04,VALID,1004.92,VALID,0,VALID,95.5517,VALID,0,VALID,24.3654,VALID,26,VALID,0,
2010-04-06, 00:38:04,VALID,1004.89,VALID,0,VALID,95.5365,VALID,0,VALID,24.3459,VALID,26,VALID,0.0257812,
2010-04-06, 00:39:04,VALID,1004.92,VALID,0,VALID,95.5212,VALID,0.100563,VALID,24.3052,VALID,26,VALID,0.427734,
2010-04-06, 00:40:04,VALID,1004.9,VALID,0,VALID,95.5441,VALID,0,VALID,24.3052,VALID,26,VALID,0.292578,
2010-04-06, 00:41:04,VALID,1004.86,VALID,0,VALID,95.5517,VALID,0,VALID,24.307,VALID,26,VALID,0.358203,
2010-04-06, 00:42:04,VALID,1004.87,VALID,0,VALID,95.5441,VALID,0,VALID,24.2875,VALID,26,VALID,0.29375,
2010-04-06, 00:43:04,VALID,1004.89,VALID,0,VALID,95.5441,VALID,0,VALID,24.2468,VALID,26,VALID,0.197656,
2010-04-06, 00:44:04,VALID,1004.85,VALID,0,VALID,95.5594,VALID,0,VALID,24.2273,VALID,26,VALID,0.200391,
2010-04-06, 00:45:04,VALID,1004.89,VALID,0,VALID,95.5594,VALID,0,VALID,24.2273,VALID,26,VALID,0.195703,
2010-04-06, 00:46:04,VALID,1004.9,VALID,0,VALID,95.5746,VALID,0,VALID,24.2078,VALID,26,VALID,0,
2010-04-06, 00:47:04,VALID,1004.88,VALID,0,VALID,95.5899,VALID,0,VALID,24.2078,VALID,26,VALID,0,
2010-04-06, 00:48:04,VALID,1004.88,VALID,0,VALID,95.6128,VALID,0,VALID,24.2486,VALID,26,VALID,0,
2010-04-06, 00:49:04,VALID,1004.85,VALID,0,VALID,95.628,VALID,0,VALID,24.2078,VALID,26,VALID,0,
2010-04-06, 00:50:04,VALID,1004.88,VALID,0,VALID,95.6509,VALID,0,VALID,24.2486,VALID,26,VALID,0,
2010-04-06, 00:51:04,VALID,1004.91,VALID,0,VALID,95.6662,VALID,0,VALID,24.2078,VALID,26,VALID,0,
2010-04-06, 00:52:04,VALID,1004.91,VALID,0,VALID,95.6662,VALID,0,VALID,24.2078,VALID,26,VALID,0,
2010-04-06, 00:53:04,VALID,1004.9,VALID,0,VALID,95.6967,VALID,0,VALID,24.1884,VALID,26,VALID,0,
2010-04-06, 00:54:04,VALID,1004.88,VALID,0,VALID,95.7196,VALID,0,VALID,24.2097,VALID,26,VALID,0.198437,
2010-04-06, 00:55:04,VALID,1004.91,VALID,0,VALID,95.7043,VALID,0,VALID,24.1902,VALID,26,VALID,0.275,
2010-04-06, 00:56:04,VALID,1004.91,VALID,0,VALID,95.7196,VALID,0,VALID,24.1902,VALID,26,VALID,0.392969,
2010-04-06, 00:57:04,VALID,1004.92,VALID,0,VALID,95.7272,VALID,0,VALID,24.1902,VALID,26,VALID,0.620703,
2010-04-06, 00:58:04,VALID,1004.89,VALID,0,VALID,95.7348,VALID,0,VALID,24.1671,VALID,26,VALID,0.6,
2010-04-06, 00:59:04,VALID,1004.89,VALID,0,VALID,95.7348,VALID,0,VALID,24.1902,VALID,26,VALID,0.421875,
2010-04-06, 01:00:04,VALID,1004.85,VALID,0,VALID,95.7653,VALID,0.100563,VALID,24.1689,VALID,26,VALID,0.355859,
2010-04-06, 01:01:04,VALID,1004.88,VALID,0,VALID,95.7653,VALID,0,VALID,24.1902,VALID,26,VALID,0.321875,
2010-04-06, 01:02:04,VALID,1004.84,VALID,0,VALID,95.7806,VALID,0,VALID,24.1707,VALID,26,VALID,0.230469,
2010-04-06, 01:03:04,VALID,1004.83,VALID,0,VALID,95.7959,VALID,0,VALID,24.1707,VALID,26,VALID,0.191406,
2010-04-06, 01:04:04,VALID,1004.84,VALID,0,VALID,95.8111,VALID,0,VALID,24.1902,VALID,26,VALID,0.149609,
2010-04-06, 01:05:04,VALID,1004.83,VALID,0,VALID,95.8035,VALID,0,VALID,24.1689,VALID,26,VALID,0,
2010-04-06, 01:06:04,VALID,1004.83,VALID,0,VALID,95.8187,VALID,0.100563,VALID,24.192,VALID,26,VALID,0,
2010-04-06, 01:07:04,VALID,1004.84,VALID,0,VALID,95.834,VALID,0.100563,VALID,24.2097,VALID,26,VALID,0.189063,
2010-04-06, 01:08:04,VALID,1004.84,VALID,0,VALID,95.834,VALID,0,VALID,24.2291,VALID,26,VALID,0.191406,
2010-04-06, 01:09:04,VALID,1004.85,VALID,0,VALID,95.8569,VALID,0.100563,VALID,24.2291,VALID,26,VALID,0,
2010-04-06, 01:10:04,VALID,1004.84,VALID,0,VALID,95.8569,VALID,0,VALID,24.2486,VALID,26,VALID,0,
2010-04-06, 01:11:04,VALID,1004.81,VALID,0,VALID,95.8721,VALID,0.100563,VALID,24.2468,VALID,26,VALID,0,
2010-04-06, 01:12:04,VALID,1004.81,VALID,0,VALID,95.8798,VALID,0,VALID,24.2662,VALID,26,VALID,0,
2010-04-06, 01:13:04,VALID,1004.83,VALID,0,VALID,95.895,VALID,0,VALID,24.307,VALID,26,VALID,0.189844,
2010-04-06, 01:14:04,VALID,1004.79,VALID,0,VALID,95.9103,VALID,0,VALID,24.2857,VALID,26,VALID,0.341797,
2010-04-06, 01:15:04,VALID,1004.76,VALID,0,VALID,95.9179,VALID,0,VALID,24.3265,VALID,26,VALID,0.506641,
2010-04-06, 01:16:04,VALID,1004.73,VALID,0,VALID,95.9103,VALID,0,VALID,24.307,VALID,26,VALID,0.473047,
2010-04-06, 01:17:04,VALID,1004.71,VALID,0,VALID,95.9255,VALID,0,VALID,24.3052,VALID,26,VALID,0.478125,
2010-04-06, 01:18:04,VALID,1004.66,VALID,0,VALID,95.9561,VALID,0,VALID,24.3478,VALID,26,VALID,0.477344,
2010-04-06, 01:19:04,VALID,1004.64,VALID,0,VALID,95.9484,VALID,0,VALID,24.3459,VALID,26,VALID,0.503125,
2010-04-06, 01:20:04,VALID,1004.59,VALID,0,VALID,95.9408,VALID,0,VALID,24.3459,VALID,26,VALID,0.550391,
2010-04-06, 01:21:04,VALID,1004.57,VALID,0,VALID,95.9561,VALID,0,VALID,24.3459,VALID,23,VALID,0.585156,
2010-04-06, 01:22:04,VALID,1004.5,VALID,0,VALID,95.9637,VALID,0,VALID,24.3441,VALID,20,VALID,0.627734,
2010-04-06, 01:23:04,VALID,1004.48,VALID,0,VALID,95.9713,VALID,0,VALID,24.3654,VALID,12,VALID,0.582422,
2010-04-06, 01:24:04,VALID,1004.47,VALID,0,VALID,95.9866,VALID,0,VALID,24.3654,VALID,12,VALID,0.514453,
2010-04-06, 01:25:04,VALID,1004.44,VALID,0,VALID,95.9561,VALID,0,VALID,24.3849,VALID,8,VALID,0.554297,
2010-04-06, 01:26:04,VALID,1004.42,VALID,0,VALID,95.9713,VALID,0,VALID,24.4238,VALID,8,VALID,0.394531,
2010-04-06, 01:27:04,VALID,1004.41,VALID,0,VALID,95.9561,VALID,0.100563,VALID,24.422,VALID,8,VALID,0.306641,
2010-04-06, 01:28:04,VALID,1004.39,VALID,0,VALID,95.9789,VALID,0,VALID,24.4628,VALID,8,VALID,0.241016,
2010-04-06, 01:29:04,VALID,1004.37,VALID,0,VALID,95.9942,VALID,0,VALID,24.4628,VALID,8,VALID,0.297656,
2010-04-06, 01:30:04,VALID,1004.37,VALID,0,VALID,96.0095,VALID,0,VALID,24.4628,VALID,8,VALID,0.255078,
2010-04-06, 01:31:04,VALID,1004.37,VALID,0,VALID,95.9942,VALID,0,VALID,24.4628,VALID,8,VALID,0.0105469,
2010-04-06, 01:32:04,VALID,1004.35,VALID,0,VALID,95.9942,VALID,0,VALID,24.4628,VALID,8,VALID,0,
2010-04-06, 01:33:04,VALID,1004.35,VALID,0,VALID,95.9942,VALID,0.100563,VALID,24.4414,VALID,8,VALID,0,
2010-04-06, 01:34:04,VALID,1004.33,VALID,0,VALID,96.0018,VALID,0,VALID,24.4414,VALID,8,VALID,0,
2010-04-06, 01:35:04,VALID,1004.34,VALID,0,VALID,95.9866,VALID,0,VALID,24.4628,VALID,8,VALID,0.00078125,
2010-04-06, 01:36:04,VALID,1004.35,VALID,0,VALID,95.9942,VALID,0,VALID,24.4609,VALID,8,VALID,0,
2010-04-06, 01:37:04,VALID,1004.34,VALID,0,VALID,95.9942,VALID,0,VALID,24.5017,VALID,8,VALID,0.0789063,
2010-04-06, 01:38:04,VALID,1004.34,VALID,0,VALID,95.9942,VALID,0,VALID,24.5017,VALID,8,VALID,0,
2010-04-06, 01:39:04,VALID,1004.33,VALID,0,VALID,95.9866,VALID,0,VALID,24.5017,VALID,8,VALID,0.195703,
2010-04-06, 01:40:04,VALID,1004.34,VALID,0,VALID,96.0018,VALID,0,VALID,24.5017,VALID,8,VALID,0.151562,
2010-04-06, 01:41:04,VALID,1004.3,VALID,0,VALID,96.0095,VALID,0,VALID,24.4414,VALID,8,VALID,0.477734,
2010-04-06, 01:42:04,VALID,1004.27,VALID,0,VALID,96.0171,VALID,0,VALID,24.4257,VALID,8,VALID,0.546484,
2010-04-06, 01:43:04,VALID,1004.27,VALID,0,VALID,96.0095,VALID,0,VALID,24.3849,VALID,8,VALID,0.608984,
2010-04-06, 01:44:04,VALID,1004.23,VALID,0,VALID,95.9866,VALID,0,VALID,24.3654,VALID,8,VALID,0.431641,
2010-04-06, 01:45:04,VALID,1004.2,VALID,0,VALID,95.9866,VALID,0,VALID,24.3478,VALID,8,VALID,0.486719,
2010-04-06, 01:46:04,VALID,1004.23,VALID,0,VALID,95.9713,VALID,0.100563,VALID,24.307,VALID,8,VALID,0.394531,
2010-04-06, 01:47:04,VALID,1004.21,VALID,0,VALID,95.9637,VALID,0,VALID,24.2857,VALID,8,VALID,0.255469,
2010-04-06, 01:48:04,VALID,1004.21,VALID,0,VALID,95.9713,VALID,0,VALID,24.3265,VALID,8,VALID,0.0410156,
2010-04-06, 01:49:04,VALID,1004.29,VALID,0,VALID,95.9561,VALID,0,VALID,24.3478,VALID,8,VALID,0.065625,
2010-04-06, 01:50:04,VALID,1004.27,VALID,0,VALID,95.9713,VALID,0,VALID,24.3459,VALID,8,VALID,0,
2010-04-06, 01:51:04,VALID,1004.29,VALID,0,VALID,95.9713,VALID,0,VALID,24.3052,VALID,8,VALID,0,
2010-04-06, 01:52:04,VALID,1004.3,VALID,0,VALID,95.9637,VALID,0,VALID,24.3654,VALID,314,VALID,0.591016,
2010-04-06, 01:53:04,VALID,1004.35,VALID,0,VALID,95.9789,VALID,0,VALID,24.3849,VALID,302,VALID,0.302344,
2010-04-06, 01:54:04,VALID,1004.36,VALID,0,VALID,95.9866,VALID,0,VALID,24.4043,VALID,302,VALID,0.040625,
2010-04-06, 01:55:04,VALID,1004.37,VALID,0,VALID,96.0095,VALID,0,VALID,24.4043,VALID,302,VALID,0,
2010-04-06, 01:56:04,VALID,1004.42,VALID,0,VALID,96.0018,VALID,0,VALID,24.4043,VALID,302,VALID,0.241406,
2010-04-06, 01:57:04,VALID,1004.4,VALID,0,VALID,96.0095,VALID,0,VALID,24.4025,VALID,302,VALID,0.0390625,
2010-04-06, 01:58:04,VALID,1004.43,VALID,0,VALID,96.0171,VALID,0,VALID,24.4433,VALID,302,VALID,0.0488281,
2010-04-06, 01:59:04,VALID,1004.41,VALID,0,VALID,96.0476,VALID,0.100563,VALID,24.4238,VALID,302,VALID,0,
2010-04-06, 02:00:04,VALID,1004.4,VALID,0,VALID,96.0095,VALID,0,VALID,24.4043,VALID,302,VALID,0,
2010-04-06, 02:01:04,VALID,1004.41,VALID,0,VALID,96.0247,VALID,0,VALID,24.3849,VALID,302,VALID,0,
2010-04-06, 02:02:04,VALID,1004.39,VALID,0,VALID,96.0247,VALID,0,VALID,24.3636,VALID,302,VALID,0,
2010-04-06, 02:03:04,VALID,1004.38,VALID,0,VALID,96.0171,VALID,0,VALID,24.3459,VALID,302,VALID,0.321875,
2010-04-06, 02:04:04,VALID,1004.35,VALID,0,VALID,96.04,VALID,0,VALID,24.3265,VALID,302,VALID,0.314844,
2010-04-06, 02:05:04,VALID,1004.34,VALID,0,VALID,96.0095,VALID,0,VALID,24.307,VALID,302,VALID,0.325391,
2010-04-06, 02:06:04,VALID,1004.32,VALID,0,VALID,96.0171,VALID,0,VALID,24.2875,VALID,302,VALID,0.586328,
2010-04-06, 02:07:04,VALID,1004.31,VALID,0,VALID,96.0095,VALID,0,VALID,24.2468,VALID,303,VALID,0.693359,
2010-04-06, 02:08:04,VALID,1004.29,VALID,0,VALID,95.9942,VALID,0,VALID,24.2273,VALID,303,VALID,0.428906,
2010-04-06, 02:09:04,VALID,1004.28,VALID,0,VALID,96.0095,VALID,0,VALID,24.2486,VALID,303,VALID,0.297266,
2010-04-06, 02:10:04,VALID,1004.26,VALID,0,VALID,96.0018,VALID,0,VALID,24.2291,VALID,303,VALID,0.0414063,
2010-04-06, 02:11:04,VALID,1004.26,VALID,0,VALID,96.0018,VALID,0,VALID,24.1884,VALID,303,VALID,0,
2010-04-06, 02:12:04,VALID,1004.26,VALID,0,VALID,96.0171,VALID,0,VALID,24.2097,VALID,303,VALID,0,
2010-04-06, 02:13:04,VALID,1004.25,VALID,0,VALID,96.0018,VALID,0,VALID,24.2097,VALID,303,VALID,0,
2010-04-06, 02:14:04,VALID,1004.26,VALID,0,VALID,96.0018,VALID,0,VALID,24.2097,VALID,303,VALID,0,
2010-04-06, 02:15:04,VALID,1004.26,VALID,0,VALID,96.0018,VALID,0,VALID,24.2291,VALID,303,VALID,0,
2010-04-06, 02:16:04,VALID,1004.26,VALID,0,VALID,96.0095,VALID,0,VALID,24.2097,VALID,303,VALID,0,
2010-04-06, 02:17:04,VALID,1004.29,VALID,0,VALID,96.0247,VALID,0,VALID,24.2078,VALID,303,VALID,0,
2010-04-06, 02:18:04,VALID,1004.28,VALID,0,VALID,96.0171,VALID,0,VALID,24.2291,VALID,303,VALID,0,
2010-04-06, 02:19:04,VALID,1004.31,VALID,0,VALID,96.0095,VALID,0,VALID,24.2291,VALID,302,VALID,0.286719,
2010-04-06, 02:20:04,VALID,1004.31,VALID,0,VALID,96.0247,VALID,0,VALID,24.1884,VALID,303,VALID,0.363281,
2010-04-06, 02:21:04,VALID,1004.31,VALID,0,VALID,96.0247,VALID,0,VALID,24.2894,VALID,101,VALID,0.574219,
2010-04-06, 02:22:04,VALID,1004.3,VALID,0,VALID,96.0476,VALID,0,VALID,24.2273,VALID,96,VALID,0.445313,
2010-04-06, 02:23:04,VALID,1004.29,VALID,0,VALID,96.0247,VALID,0,VALID,24.2273,VALID,96,VALID,0.305859,
2010-04-06, 02:24:04,VALID,1004.26,VALID,0,VALID,96.0476,VALID,0,VALID,24.2681,VALID,80,VALID,0.366016,
2010-04-06, 02:25:04,VALID,1004.25,VALID,0,VALID,96.0552,VALID,0,VALID,24.307,VALID,79,VALID,0.501953,
2010-04-06, 02:26:04,VALID,1004.19,VALID,0,VALID,96.0476,VALID,0,VALID,24.3265,VALID,78,VALID,0.416406,
2010-04-06, 02:27:04,VALID,1004.21,VALID,0,VALID,96.0552,VALID,0,VALID,24.3246,VALID,78,VALID,0.116797,
2010-04-06, 02:28:04,VALID,1004.17,VALID,0,VALID,96.0629,VALID,0,VALID,24.3265,VALID,78,VALID,0.357422,
2010-04-06, 02:29:04,VALID,1004.11,VALID,0,VALID,96.0781,VALID,0,VALID,24.3459,VALID,78,VALID,0.210938,
2010-04-06, 02:30:04,VALID,1004.11,VALID,0,VALID,96.0705,VALID,0,VALID,24.3246,VALID,78,VALID,0.196484,
2010-04-06, 02:31:04,VALID,1004.05,VALID,0,VALID,96.0781,VALID,0,VALID,24.3654,VALID,78,VALID,0.203125,
2010-04-06, 02:32:04,VALID,1003.98,VALID,0,VALID,96.0781,VALID,0,VALID,24.3654,VALID,78,VALID,0.116016,
2010-04-06, 02:33:04,VALID,1003.95,VALID,0,VALID,96.0934,VALID,0,VALID,24.3654,VALID,78,VALID,0.167187,
2010-04-06, 02:34:04,VALID,1003.94,VALID,0,VALID,96.0934,VALID,0,VALID,24.3441,VALID,78,VALID,0,
2010-04-06, 02:35:04,VALID,1003.92,VALID,0,VALID,96.0934,VALID,0,VALID,24.383,VALID,78,VALID,0.0328125,
2010-04-06, 02:36:04,VALID,1003.95,VALID,0,VALID,96.0857,VALID,0,VALID,24.4025,VALID,78,VALID,0,
2010-04-06, 02:37:04,VALID,1003.93,VALID,0,VALID,96.0857,VALID,0,VALID,24.422,VALID,78,VALID,0,
2010-04-06, 02:38:04,VALID,1003.95,VALID,0,VALID,96.0934,VALID,0,VALID,24.4609,VALID,78,VALID,0,
2010-04-06, 02:39:04,VALID,1003.95,VALID,0,VALID,96.0857,VALID,0,VALID,24.5193,VALID,78,VALID,0,
2010-04-06, 02:40:04,VALID,1003.94,VALID,0,VALID,96.1086,VALID,0,VALID,24.5388,VALID,78,VALID,0,
2010-04-06, 02:41:04,VALID,1003.96,VALID,0,VALID,96.1086,VALID,0,VALID,24.5796,VALID,78,VALID,0,
2010-04-06, 02:42:04,VALID,1003.96,VALID,0,VALID,96.0934,VALID,0,VALID,24.5972,VALID,78,VALID,0,
2010-04-06, 02:43:04,VALID,1003.99,VALID,0,VALID,96.1163,VALID,0,VALID,24.6166,VALID,78,VALID,0,
2010-04-06, 02:44:04,VALID,1003.98,VALID,0,VALID,96.1086,VALID,0,VALID,24.638,VALID,78,VALID,0,
2010-04-06, 02:45:04,VALID,1003.99,VALID,0,VALID,96.1239,VALID,0,VALID,24.5796,VALID,78,VALID,0,
2010-04-06, 02:46:04,VALID,1004.02,VALID,0,VALID,96.1773,VALID,0,VALID,24.4804,VALID,78,VALID,0,
2010-04-06, 02:47:04,VALID,1004.02,VALID,0,VALID,96.1773,VALID,0,VALID,24.4433,VALID,78,VALID,0.0167969,
2010-04-06, 02:48:04,VALID,1004,VALID,0,VALID,96.1697,VALID,0,VALID,24.3636,VALID,63,VALID,0.378906,
2010-04-06, 02:49:04,VALID,1003.98,VALID,0,VALID,96.1697,VALID,0,VALID,24.3654,VALID,53,VALID,0.430078,
2010-04-06, 02:50:04,VALID,1003.97,VALID,0,VALID,96.1697,VALID,0,VALID,24.3478,VALID,52,VALID,0.301172,
2010-04-06, 02:51:04,VALID,1004,VALID,0,VALID,96.162,VALID,0,VALID,24.3265,VALID,45,VALID,0.499609,
2010-04-06, 02:52:04,VALID,1004.02,VALID,0,VALID,96.1544,VALID,0,VALID,24.307,VALID,41,VALID,0.413281,
2010-04-06, 02:53:04,VALID,1003.98,VALID,0,VALID,96.1697,VALID,0,VALID,24.307,VALID,40,VALID,0.255469,
2010-04-06, 02:54:04,VALID,1003.95,VALID,0,VALID,96.1468,VALID,0,VALID,24.2875,VALID,40,VALID,0.464063,
2010-04-06, 02:55:04,VALID,1003.93,VALID,0,VALID,96.1544,VALID,0,VALID,24.2681,VALID,40,VALID,0.544141,
2010-04-06, 02:56:04,VALID,1003.87,VALID,0,VALID,96.1468,VALID,0,VALID,24.2662,VALID,34,VALID,0.598437,
2010-04-06, 02:57:04,VALID,1003.89,VALID,0,VALID,96.1392,VALID,0,VALID,24.2662,VALID,34,VALID,0.696484,
2010-04-06, 02:58:04,VALID,1003.86,VALID,0,VALID,96.1315,VALID,0,VALID,24.2468,VALID,34,VALID,0.288672,
2010-04-06, 02:59:04,VALID,1003.89,VALID,0,VALID,96.1392,VALID,0,VALID,24.2291,VALID,34,VALID,0.133594,
2010-04-06, 03:00:04,VALID,1003.9,VALID,0,VALID,96.1544,VALID,0,VALID,24.2291,VALID,34,VALID,0.286719,
2010-04-06, 03:01:04,VALID,1003.91,VALID,0,VALID,96.1468,VALID,0,VALID,24.2078,VALID,34,VALID,0.126563,
2010-04-06, 03:02:04,VALID,1003.91,VALID,0,VALID,96.1163,VALID,0,VALID,24.2273,VALID,34,VALID,0.205859,
2010-04-06, 03:03:04,VALID,1003.91,VALID,0,VALID,96.1544,VALID,0,VALID,24.2273,VALID,34,VALID,0,
2010-04-06, 03:04:04,VALID,1003.89,VALID,0,VALID,96.1468,VALID,0,VALID,24.2291,VALID,34,VALID,0,
2010-04-06, 03:05:04,VALID,1003.87,VALID,0,VALID,96.1392,VALID,0,VALID,24.2078,VALID,34,VALID,0,
2010-04-06, 03:06:04,VALID,1003.84,VALID,0,VALID,96.162,VALID,0,VALID,24.2273,VALID,34,VALID,0,
2010-04-06, 03:07:04,VALID,1003.82,VALID,0,VALID,96.1315,VALID,0,VALID,24.1884,VALID,34,VALID,0.480859,
2010-04-06, 03:08:04,VALID,1003.8,VALID,0,VALID,96.1544,VALID,0,VALID,24.1884,VALID,34,VALID,0.666797,
2010-04-06, 03:09:04,VALID,1003.8,VALID,0,VALID,96.162,VALID,0,VALID,24.1884,VALID,22,VALID,0.553125,
2010-04-06, 03:10:04,VALID,1003.78,VALID,0,VALID,96.1697,VALID,0,VALID,24.2097,VALID,22,VALID,0.547656,
2010-04-06, 03:11:04,VALID,1003.75,VALID,0,VALID,96.162,VALID,0,VALID,24.1689,VALID,22,VALID,0.365625,
2010-04-06, 03:12:04,VALID,1003.76,VALID,0,VALID,96.1773,VALID,0,VALID,24.1884,VALID,22,VALID,0.186328,
2010-04-06, 03:13:04,VALID,1003.73,VALID,0,VALID,96.162,VALID,0,VALID,24.1902,VALID,22,VALID,0.140234,
2010-04-06, 03:14:04,VALID,1003.74,VALID,0,VALID,96.1849,VALID,0,VALID,24.1902,VALID,22,VALID,0.0535156,
2010-04-06, 03:15:04,VALID,1003.73,VALID,0,VALID,96.162,VALID,0,VALID,24.1707,VALID,22,VALID,0.257813,
2010-04-06, 03:16:04,VALID,1003.71,VALID,0,VALID,96.162,VALID,0,VALID,24.1513,VALID,22,VALID,0.487109,
2010-04-06, 03:17:04,VALID,1003.7,VALID,0,VALID,96.1849,VALID,0,VALID,24.13,VALID,22,VALID,0.420703,
2010-04-06, 03:18:04,VALID,1003.71,VALID,0,VALID,96.1697,VALID,0,VALID,24.1494,VALID,22,VALID,0.565625,
2010-04-06, 03:19:04,VALID,1003.7,VALID,0,VALID,96.162,VALID,0,VALID,24.1707,VALID,22,VALID,0.555859,
2010-04-06, 03:20:04,VALID,1003.7,VALID,0,VALID,96.1773,VALID,0,VALID,24.1513,VALID,22,VALID,0.505078,
2010-04-06, 03:21:04,VALID,1003.66,VALID,0,VALID,96.1849,VALID,0,VALID,24.1318,VALID,22,VALID,0.489062,
2010-04-06, 03:22:04,VALID,1003.61,VALID,0,VALID,96.2078,VALID,0,VALID,24.091,VALID,22,VALID,0.590234,
2010-04-06, 03:23:04,VALID,1003.59,VALID,0,VALID,96.2154,VALID,0,VALID,24.0716,VALID,22,VALID,0.763281,
2010-04-06, 03:24:04,VALID,1003.56,VALID,0,VALID,96.2078,VALID,0,VALID,24.0521,VALID,16,VALID,0.619531,
2010-04-06, 03:25:04,VALID,1003.52,VALID,0,VALID,96.1849,VALID,0,VALID,24.0929,VALID,2,VALID,0.516797,
2010-04-06, 03:26:04,VALID,1003.5,VALID,0,VALID,96.1697,VALID,0,VALID,24.091,VALID,2,VALID,0.395703,
2010-04-06, 03:27:04,VALID,1003.47,VALID,0,VALID,96.1849,VALID,0,VALID,24.1513,VALID,1,VALID,0.497656,
2010-04-06, 03:28:04,VALID,1003.45,VALID,0,VALID,96.162,VALID,0,VALID,24.2097,VALID,359,VALID,0.611328,
2010-04-06, 03:29:04,VALID,1003.44,VALID,0,VALID,96.1773,VALID,0,VALID,24.2291,VALID,356,VALID,0.508594,
2010-04-06, 03:30:04,VALID,1003.45,VALID,0,VALID,96.162,VALID,0,VALID,24.2097,VALID,356,VALID,0.102344,
2010-04-06, 03:31:04,VALID,1003.43,VALID,0,VALID,96.2002,VALID,0,VALID,24.1884,VALID,356,VALID,0.344922,
2010-04-06, 03:32:04,VALID,1003.43,VALID,0,VALID,96.2078,VALID,0,VALID,24.1902,VALID,356,VALID,0.288281,
2010-04-06, 03:33:04,VALID,1003.42,VALID,0,VALID,96.2307,VALID,0,VALID,24.13,VALID,356,VALID,0.1625,
2010-04-06, 03:34:04,VALID,1003.39,VALID,0,VALID,96.2154,VALID,0.100563,VALID,24.13,VALID,356,VALID,0.283203,
2010-04-06, 03:35:04,VALID,1003.37,VALID,0,VALID,96.2154,VALID,0,VALID,24.1123,VALID,356,VALID,0.183594,
2010-04-06, 03:36:04,VALID,1003.36,VALID,0,VALID,96.2231,VALID,0,VALID,24.0716,VALID,357,VALID,0.445703,
2010-04-06, 03:37:04,VALID,1003.35,VALID,0,VALID,96.2154,VALID,0,VALID,24.091,VALID,71,VALID,0.3375,
2010-04-06, 03:38:04,VALID,1003.32,VALID,0,VALID,96.2154,VALID,0,VALID,24.13,VALID,71,VALID,0.363672,
2010-04-06, 03:39:04,VALID,1003.31,VALID,0,VALID,96.2078,VALID,0,VALID,24.1494,VALID,73,VALID,0.0804688,
2010-04-06, 03:40:04,VALID,1003.25,VALID,0,VALID,96.2078,VALID,0,VALID,24.13,VALID,74,VALID,0.279687,
2010-04-06, 03:41:04,VALID,1003.24,VALID,0,VALID,96.2307,VALID,0,VALID,24.1494,VALID,75,VALID,0.360156,
2010-04-06, 03:42:04,VALID,1003.2,VALID,0,VALID,96.2078,VALID,0,VALID,24.2097,VALID,76,VALID,0.278125,
2010-04-06, 03:43:04,VALID,1003.22,VALID,0,VALID,96.2307,VALID,0.100563,VALID,24.1884,VALID,76,VALID,0,
2010-04-06, 03:44:04,VALID,1003.21,VALID,0,VALID,96.2307,VALID,0.100563,VALID,24.1884,VALID,76,VALID,0,
2010-04-06, 03:45:04,VALID,1003.21,VALID,0,VALID,96.2231,VALID,0.100563,VALID,24.2078,VALID,76,VALID,0.232031,
2010-04-06, 03:46:04,VALID,1003.21,VALID,0,VALID,96.2307,VALID,0,VALID,24.2273,VALID,76,VALID,0.2375,
2010-04-06, 03:47:04,VALID,1003.2,VALID,0,VALID,96.2154,VALID,0.100563,VALID,24.2857,VALID,75,VALID,0.217969,
2010-04-06, 03:48:04,VALID,1003.17,VALID,0,VALID,96.2154,VALID,0,VALID,24.3441,VALID,75,VALID,0.55,
2010-04-06, 03:49:04,VALID,1003.18,VALID,0,VALID,96.2002,VALID,0,VALID,24.3617,VALID,75,VALID,0.321484,
2010-04-06, 03:50:04,VALID,1003.2,VALID,0,VALID,96.2154,VALID,0,VALID,24.4238,VALID,75,VALID,0.385156,